owner,sensor,date,latitude,longitude,vertical_datum,wind_speed,wind_to_direction,wind_speed_of_gust,qcFlag 
TCOON,ioos:station:TCOON:518:1,2016-12-01T00:00:00Z,29.5150,-94.5133,0.0,4.4,24.0,5.5,'11111222,11111222,11111222' 
TCOON,ioos:station:TCOON:518:1,2016-12-01T00:06:00Z,29.5150,-94.5133,0.0,5.0,24.0,6.1,'11111222,11111222,11111222' 
TCOON,ioos:station:TCOON:518:1,2016-12-01T00:12:00Z,29.5150,-94.5133,0.0,5.3,24.0,5.9,'11111222,11111222,11111222' 
TCOON,ioos:station:TCOON:518:1,2016-12-01T00:18:00Z,29.5150,-94.5133,0.0,5.4,26.0,6.4,'1111122,1111122,1111122' 
TCOON,ioos:station:TCOON:518:1,2016-12-01T00:24:00Z,29.5150,-94.5133,0.0,5.4,26.0,6.4,'11111222,11111222,11111222' 
TCOON,ioos:station:TCOON:518:1,2016-12-01T00:30:00Z,29.5150,-94.5133,0.0,5.5,22.0,6.5,'11111222,11111222,11111222' 
TCOON,ioos:station:TCOON:518:1,2016-12-01T00:36:00Z,29.5150,-94.5133,0.0,5.5,20.0,6.4,'11111222,11111222,11111222' 
TCOON,ioos:station:TCOON:518:1,2016-12-01T00:42:00Z,29.5150,-94.5133,0.0,5.4,20.0,6.6,'11111222,11111222,11111222' 
TCOON,ioos:station:TCOON:518:1,2016-12-01T00:48:00Z,29.5150,-94.5133,0.0,5.1,22.0,6.4,'11111222,11111222,11111222' 
TCOON,ioos:station:TCOON:518:1,2016-12-01T00:54:00Z,29.5150,-94.5133,0.0,5.2,22.0,6.0,'11111222,11111222,11111222' 
TCOON,ioos:station:TCOON:518:1,2016-12-01T01:00:00Z,29.5150,-94.5133,0.0,5.3,23.0,6.0,'11111222,11111222,11111222' 
TCOON,ioos:station:TCOON:518:1,2016-12-01T01:06:00Z,29.5150,-94.5133,0.0,5.2,23.0,5.9,'11111222,11111222,11111222' 
TCOON,ioos:station:TCOON:518:1,2016-12-01T01:12:00Z,29.5150,-94.5133,0.0,4.7,20.0,5.7,'11111222,11111222,11111222' 
TCOON,ioos:station:TCOON:518:1,2016-12-01T01:18:00Z,29.5150,-94.5133,0.0,4.7,14.0,6.0,'1111122,1111122,1111122' 
TCOON,ioos:station:TCOON:518:1,2016-12-01T01:24:00Z,29.5150,-94.5133,0.0,4.7,14.0,6.0,'11111222,11111222,11111222' 
TCOON,ioos:station:TCOON:518:1,2016-12-01T01:30:00Z,29.5150,-94.5133,0.0,4.7,17.0,5.8,'11111222,11111222,11111222' 
TCOON,ioos:station:TCOON:518:1,2016-12-01T01:36:00Z,29.5150,-94.5133,0.0,4.9,22.0,6.1,'11111222,11111222,11111222' 
TCOON,ioos:station:TCOON:518:1,2016-12-01T01:42:00Z,29.5150,-94.5133,0.0,4.7,21.0,5.8,'11111222,11111222,11111222' 
TCOON,ioos:station:TCOON:518:1,2016-12-01T01:48:00Z,29.5150,-94.5133,0.0,5.0,22.0,5.7,'11111222,11111222,11111222' 
TCOON,ioos:station:TCOON:518:1,2016-12-01T01:54:00Z,29.5150,-94.5133,0.0,5.3,21.0,6.4,'11111222,11111222,11111222' 
TCOON,ioos:station:TCOON:518:1,2016-12-01T02:00:00Z,29.5150,-94.5133,0.0,5.2,26.0,6.4,'11111222,11111222,11111222' 
TCOON,ioos:station:TCOON:518:1,2016-12-01T02:06:00Z,29.5150,-94.5133,0.0,5.2,21.0,6.4,'11111222,11111222,11111222' 
TCOON,ioos:station:TCOON:518:1,2016-12-01T02:12:00Z,29.5150,-94.5133,0.0,5.2,20.0,6.3,'11111222,11111222,11111222' 
TCOON,ioos:station:TCOON:518:1,2016-12-01T02:18:00Z,29.5150,-94.5133,0.0,5.1,20.0,5.9,'1111122,1111122,1111122' 
TCOON,ioos:station:TCOON:518:1,2016-12-01T02:24:00Z,29.5150,-94.5133,0.0,5.1,20.0,5.9,'11111222,11111222,11111222' 
TCOON,ioos:station:TCOON:518:1,2016-12-01T02:30:00Z,29.5150,-94.5133,0.0,4.8,17.0,6.0,'11111222,11111222,11111222' 
TCOON,ioos:station:TCOON:518:1,2016-12-01T02:36:00Z,29.5150,-94.5133,0.0,5.0,17.0,5.6,'11111222,11111222,11111222' 
TCOON,ioos:station:TCOON:518:1,2016-12-01T02:42:00Z,29.5150,-94.5133,0.0,4.8,20.0,5.8,'11111222,11111222,11111222' 
TCOON,ioos:station:TCOON:518:1,2016-12-01T02:48:00Z,29.5150,-94.5133,0.0,4.6,20.0,5.7,'11111222,11111222,11111222' 
TCOON,ioos:station:TCOON:518:1,2016-12-01T02:54:00Z,29.5150,-94.5133,0.0,4.7,19.0,5.3,'11111222,11111222,11111222' 
TCOON,ioos:station:TCOON:518:1,2016-12-01T03:00:00Z,29.5150,-94.5133,0.0,4.4,21.0,5.2,'11111222,11111222,11111222' 
TCOON,ioos:station:TCOON:518:1,2016-12-01T03:06:00Z,29.5150,-94.5133,0.0,4.3,27.0,5.0,'11111222,11111222,11111222' 
TCOON,ioos:station:TCOON:518:1,2016-12-01T03:18:00Z,29.5150,-94.5133,0.0,3.5,26.0,4.8,'1111122,1111122,1111122' 
TCOON,ioos:station:TCOON:518:1,2016-12-01T03:24:00Z,29.5150,-94.5133,0.0,3.5,26.0,4.8,'11111222,11111222,11111222' 
TCOON,ioos:station:TCOON:518:1,2016-12-01T03:36:00Z,29.5150,-94.5133,0.0,3.2,37.0,4.1,'11111222,11111222,11111222' 
TCOON,ioos:station:TCOON:518:1,2016-12-01T03:42:00Z,29.5150,-94.5133,0.0,2.9,39.0,3.6,'11111222,11111222,11111222' 
TCOON,ioos:station:TCOON:518:1,2016-12-01T03:48:00Z,29.5150,-94.5133,0.0,2.9,46.0,4.0,'11111222,11111222,11111222' 
TCOON,ioos:station:TCOON:518:1,2016-12-01T03:54:00Z,29.5150,-94.5133,0.0,2.8,46.0,3.4,'11111222,11111222,11111222' 
TCOON,ioos:station:TCOON:518:1,2016-12-01T04:00:00Z,29.5150,-94.5133,0.0,2.7,49.0,3.5,'11111222,11111222,11111222' 
TCOON,ioos:station:TCOON:518:1,2016-12-01T04:06:00Z,29.5150,-94.5133,0.0,2.9,42.0,3.7,'11111222,11111222,11111222' 
TCOON,ioos:station:TCOON:518:1,2016-12-01T04:12:00Z,29.5150,-94.5133,0.0,3.2,44.0,3.8,'11111222,11111222,11111222' 
TCOON,ioos:station:TCOON:518:1,2016-12-01T04:18:00Z,29.5150,-94.5133,0.0,2.9,51.0,3.5,'11111222,11111222,11111222' 
TCOON,ioos:station:TCOON:518:1,2016-12-01T04:24:00Z,29.5150,-94.5133,0.0,2.6,53.0,3.1,'1111122,1111122,1111122' 
TCOON,ioos:station:TCOON:518:1,2016-12-01T04:30:00Z,29.5150,-94.5133,0.0,2.6,53.0,3.1,'11111222,11111222,11111222' 
TCOON,ioos:station:TCOON:518:1,2016-12-01T04:36:00Z,29.5150,-94.5133,0.0,2.7,49.0,3.3,'11111222,11111222,11111222' 
TCOON,ioos:station:TCOON:518:1,2016-12-01T04:42:00Z,29.5150,-94.5133,0.0,3.0,45.0,3.4,'11111222,11111222,11111222' 
TCOON,ioos:station:TCOON:518:1,2016-12-01T04:48:00Z,29.5150,-94.5133,0.0,3.2,45.0,3.5,'11111222,11111222,11111222' 
TCOON,ioos:station:TCOON:518:1,2016-12-01T04:54:00Z,29.5150,-94.5133,0.0,3.1,41.0,3.4,'11111222,11111222,11111222' 
TCOON,ioos:station:TCOON:518:1,2016-12-01T05:00:00Z,29.5150,-94.5133,0.0,3.0,40.0,3.2,'11111222,11111222,11111222' 
TCOON,ioos:station:TCOON:518:1,2016-12-01T05:06:00Z,29.5150,-94.5133,0.0,2.9,33.0,3.2,'11111222,11111222,11111222' 
TCOON,ioos:station:TCOON:518:1,2016-12-01T05:12:00Z,29.5150,-94.5133,0.0,3.0,39.0,3.3,'11111222,11111222,11111222' 
TCOON,ioos:station:TCOON:518:1,2016-12-01T05:18:00Z,29.5150,-94.5133,0.0,2.9,37.0,3.3,'1111122,1111122,1111122' 
TCOON,ioos:station:TCOON:518:1,2016-12-01T05:24:00Z,29.5150,-94.5133,0.0,2.9,37.0,3.3,'11111222,11111222,11111222' 
TCOON,ioos:station:TCOON:518:1,2016-12-01T05:30:00Z,29.5150,-94.5133,0.0,2.7,40.0,3.1,'11111222,11111222,11111222' 
TCOON,ioos:station:TCOON:518:1,2016-12-01T05:36:00Z,29.5150,-94.5133,0.0,2.5,36.0,3.0,'11111222,11111222,11111222' 
TCOON,ioos:station:TCOON:518:1,2016-12-01T05:48:00Z,29.5150,-94.5133,0.0,2.1,39.0,2.7,'11111222,11111222,11111222' 
TCOON,ioos:station:TCOON:518:1,2016-12-01T05:54:00Z,29.5150,-94.5133,0.0,1.9,39.0,2.5,'11111222,11111222,11111222' 
TCOON,ioos:station:TCOON:518:1,2016-12-01T06:00:00Z,29.5150,-94.5133,0.0,2.0,44.0,2.4,'11111222,11111222,11111222' 
TCOON,ioos:station:TCOON:518:1,2016-12-01T06:06:00Z,29.5150,-94.5133,0.0,1.7,42.0,2.3,'11111222,11111222,11111222' 
TCOON,ioos:station:TCOON:518:1,2016-12-01T06:12:00Z,29.5150,-94.5133,0.0,1.9,46.0,2.3,'11111222,11111222,11111222' 
TCOON,ioos:station:TCOON:518:1,2016-12-01T06:18:00Z,29.5150,-94.5133,0.0,1.8,38.0,2.0,'1111122,1111122,1111122' 
TCOON,ioos:station:TCOON:518:1,2016-12-01T06:24:00Z,29.5150,-94.5133,0.0,1.8,38.0,2.0,'11111222,11111222,11111222' 
TCOON,ioos:station:TCOON:518:1,2016-12-01T06:30:00Z,29.5150,-94.5133,0.0,1.7,30.0,2.1,'11111222,11111222,11111222' 
TCOON,ioos:station:TCOON:518:1,2016-12-01T06:36:00Z,29.5150,-94.5133,0.0,2.0,25.0,2.3,'11111222,11111222,11111222' 
TCOON,ioos:station:TCOON:518:1,2016-12-01T06:42:00Z,29.5150,-94.5133,0.0,2.3,26.0,2.6,'11111222,11111222,11111222' 
TCOON,ioos:station:TCOON:518:1,2016-12-01T06:48:00Z,29.5150,-94.5133,0.0,2.4,29.0,2.8,'11111222,11111222,11111222' 
TCOON,ioos:station:TCOON:518:1,2016-12-01T06:54:00Z,29.5150,-94.5133,0.0,2.4,29.0,2.8,'11111222,11111222,11111222' 
TCOON,ioos:station:TCOON:518:1,2016-12-01T07:00:00Z,29.5150,-94.5133,0.0,2.5,25.0,2.8,'11111222,11111222,11111222' 
TCOON,ioos:station:TCOON:518:1,2016-12-01T07:12:00Z,29.5150,-94.5133,0.0,3.0,26.0,3.2,'11111222,11111222,11111222' 
TCOON,ioos:station:TCOON:518:1,2016-12-01T07:18:00Z,29.5150,-94.5133,0.0,3.0,25.0,3.5,'1111122,1111122,1111122' 
TCOON,ioos:station:TCOON:518:1,2016-12-01T07:24:00Z,29.5150,-94.5133,0.0,3.0,25.0,3.5,'11111222,11111222,11111222' 
TCOON,ioos:station:TCOON:518:1,2016-12-01T07:30:00Z,29.5150,-94.5133,0.0,3.6,19.0,3.9,'11111222,11111222,11111222' 
TCOON,ioos:station:TCOON:518:1,2016-12-01T07:36:00Z,29.5150,-94.5133,0.0,3.8,19.0,4.3,'11111222,11111222,11111222' 
TCOON,ioos:station:TCOON:518:1,2016-12-01T07:42:00Z,29.5150,-94.5133,0.0,4.5,15.0,5.5,'11111222,11111222,11111222' 
TCOON,ioos:station:TCOON:518:1,2016-12-01T07:48:00Z,29.5150,-94.5133,0.0,5.5,8.0,6.1,'11111222,11111222,11111222' 
TCOON,ioos:station:TCOON:518:1,2016-12-01T07:54:00Z,29.5150,-94.5133,0.0,4.9,7.0,6.1,'11111222,11111222,11111222' 
TCOON,ioos:station:TCOON:518:1,2016-12-01T08:00:00Z,29.5150,-94.5133,0.0,4.6,7.0,5.5,'11111222,11111222,11111222' 
TCOON,ioos:station:TCOON:518:1,2016-12-01T08:06:00Z,29.5150,-94.5133,0.0,4.8,9.0,5.3,'11111222,11111222,11111222' 
TCOON,ioos:station:TCOON:518:1,2016-12-01T08:12:00Z,29.5150,-94.5133,0.0,4.5,7.0,5.4,'11111222,11111222,11111222' 
TCOON,ioos:station:TCOON:518:1,2016-12-01T08:18:00Z,29.5150,-94.5133,0.0,4.8,15.0,5.7,'1111122,1111122,1111122' 
TCOON,ioos:station:TCOON:518:1,2016-12-01T08:24:00Z,29.5150,-94.5133,0.0,4.8,15.0,5.7,'11111222,11111222,11111222' 
TCOON,ioos:station:TCOON:518:1,2016-12-01T08:30:00Z,29.5150,-94.5133,0.0,5.4,16.0,6.0,'11111222,11111222,11111222' 
TCOON,ioos:station:TCOON:518:1,2016-12-01T08:36:00Z,29.5150,-94.5133,0.0,5.7,17.0,6.1,'11111222,11111222,11111222' 
TCOON,ioos:station:TCOON:518:1,2016-12-01T08:42:00Z,29.5150,-94.5133,0.0,5.4,15.0,6.0,'11111222,11111222,11111222' 
TCOON,ioos:station:TCOON:518:1,2016-12-01T08:48:00Z,29.5150,-94.5133,0.0,5.2,13.0,6.1,'11111222,11111222,11111222' 
TCOON,ioos:station:TCOON:518:1,2016-12-01T08:54:00Z,29.5150,-94.5133,0.0,5.5,13.0,6.2,'11111222,11111222,11111222' 
TCOON,ioos:station:TCOON:518:1,2016-12-01T09:00:00Z,29.5150,-94.5133,0.0,5.0,17.0,6.3,'11111222,11111222,11111222' 
TCOON,ioos:station:TCOON:518:1,2016-12-01T09:06:00Z,29.5150,-94.5133,0.0,5.0,17.0,6.1,'11111222,11111222,11111222' 
TCOON,ioos:station:TCOON:518:1,2016-12-01T09:12:00Z,29.5150,-94.5133,0.0,5.3,19.0,6.3,'11111222,11111222,11111222' 
TCOON,ioos:station:TCOON:518:1,2016-12-01T09:18:00Z,29.5150,-94.5133,0.0,4.9,22.0,5.8,'1111122,1111122,1111122' 
TCOON,ioos:station:TCOON:518:1,2016-12-01T09:24:00Z,29.5150,-94.5133,0.0,4.9,22.0,5.8,'11111222,11111222,11111222' 
TCOON,ioos:station:TCOON:518:1,2016-12-01T09:30:00Z,29.5150,-94.5133,0.0,4.6,25.0,5.5,'11111222,11111222,11111222' 
TCOON,ioos:station:TCOON:518:1,2016-12-01T09:36:00Z,29.5150,-94.5133,0.0,4.9,29.0,5.8,'11111222,11111222,11111222' 
TCOON,ioos:station:TCOON:518:1,2016-12-01T09:42:00Z,29.5150,-94.5133,0.0,4.8,35.0,5.7,'11111222,11111222,11111222' 
TCOON,ioos:station:TCOON:518:1,2016-12-01T09:48:00Z,29.5150,-94.5133,0.0,5.2,33.0,6.2,'11111222,11111222,11111222' 
TCOON,ioos:station:TCOON:518:1,2016-12-01T09:54:00Z,29.5150,-94.5133,0.0,5.2,34.0,6.1,'11111222,11111222,11111222' 
TCOON,ioos:station:TCOON:518:1,2016-12-01T10:00:00Z,29.5150,-94.5133,0.0,5.2,37.0,6.1,'11111222,11111222,11111222' 
TCOON,ioos:station:TCOON:518:1,2016-12-01T10:06:00Z,29.5150,-94.5133,0.0,4.9,41.0,6.2,'11111222,11111222,11111222' 
TCOON,ioos:station:TCOON:518:1,2016-12-01T10:12:00Z,29.5150,-94.5133,0.0,6.0,40.0,6.8,'11111222,11111222,11111222' 
TCOON,ioos:station:TCOON:518:1,2016-12-01T10:18:00Z,29.5150,-94.5133,0.0,5.7,45.0,6.8,'1111122,1111122,1111122' 
TCOON,ioos:station:TCOON:518:1,2016-12-01T10:24:00Z,29.5150,-94.5133,0.0,5.7,45.0,6.8,'11111222,11111222,11111222' 
TCOON,ioos:station:TCOON:518:1,2016-12-01T10:30:00Z,29.5150,-94.5133,0.0,5.1,48.0,6.6,'11111222,11111222,11111222' 
TCOON,ioos:station:TCOON:518:1,2016-12-01T10:36:00Z,29.5150,-94.5133,0.0,5.0,42.0,6.2,'11111222,11111222,11111222' 
TCOON,ioos:station:TCOON:518:1,2016-12-01T10:48:00Z,29.5150,-94.5133,0.0,5.5,51.0,6.8,'11111222,11111222,11111222' 
TCOON,ioos:station:TCOON:518:1,2016-12-01T10:54:00Z,29.5150,-94.5133,0.0,5.7,47.0,6.7,'11111222,11111222,11111222' 
TCOON,ioos:station:TCOON:518:1,2016-12-01T11:00:00Z,29.5150,-94.5133,0.0,5.3,48.0,6.7,'11111222,11111222,11111222' 
TCOON,ioos:station:TCOON:518:1,2016-12-01T11:06:00Z,29.5150,-94.5133,0.0,6.1,45.0,7.3,'11111222,11111222,11111222' 
TCOON,ioos:station:TCOON:518:1,2016-12-01T11:12:00Z,29.5150,-94.5133,0.0,6.0,46.0,6.8,'11111222,11111222,11111222' 
TCOON,ioos:station:TCOON:518:1,2016-12-01T11:18:00Z,29.5150,-94.5133,0.0,5.3,45.0,6.9,'1111122,1111122,1111122' 
TCOON,ioos:station:TCOON:518:1,2016-12-01T11:24:00Z,29.5150,-94.5133,0.0,5.3,45.0,6.9,'11111222,11111222,11111222' 
TCOON,ioos:station:TCOON:518:1,2016-12-01T11:30:00Z,29.5150,-94.5133,0.0,5.4,46.0,6.5,'11111222,11111222,11111222' 
TCOON,ioos:station:TCOON:518:1,2016-12-01T11:36:00Z,29.5150,-94.5133,0.0,5.7,52.0,7.0,'11111222,11111222,11111222' 
TCOON,ioos:station:TCOON:518:1,2016-12-01T11:42:00Z,29.5150,-94.5133,0.0,5.5,55.0,7.3,'11111222,11111222,11111222' 
TCOON,ioos:station:TCOON:518:1,2016-12-01T11:48:00Z,29.5150,-94.5133,0.0,6.1,61.0,6.9,'11111222,11111222,11111222' 
TCOON,ioos:station:TCOON:518:1,2016-12-01T11:54:00Z,29.5150,-94.5133,0.0,5.2,66.0,6.2,'11111222,11111222,11111222' 
TCOON,ioos:station:TCOON:518:1,2016-12-01T12:00:00Z,29.5150,-94.5133,0.0,5.0,58.0,6.0,'11111222,11111222,11111222' 
TCOON,ioos:station:TCOON:518:1,2016-12-01T12:06:00Z,29.5150,-94.5133,0.0,5.9,63.0,6.7,'11111222,11111222,11111222' 
TCOON,ioos:station:TCOON:518:1,2016-12-01T12:12:00Z,29.5150,-94.5133,0.0,5.8,58.0,6.4,'11111222,11111222,11111222' 
TCOON,ioos:station:TCOON:518:1,2016-12-01T12:18:00Z,29.5150,-94.5133,0.0,5.9,61.0,7.0,'1111122,1111122,1111122' 
TCOON,ioos:station:TCOON:518:1,2016-12-01T12:24:00Z,29.5150,-94.5133,0.0,5.9,61.0,7.0,'11111222,11111222,11111222' 
TCOON,ioos:station:TCOON:518:1,2016-12-01T12:30:00Z,29.5150,-94.5133,0.0,5.7,60.0,6.8,'11111222,11111222,11111222' 
TCOON,ioos:station:TCOON:518:1,2016-12-01T12:36:00Z,29.5150,-94.5133,0.0,5.9,58.0,6.7,'11111222,11111222,11111222' 
TCOON,ioos:station:TCOON:518:1,2016-12-01T12:42:00Z,29.5150,-94.5133,0.0,5.9,56.0,6.5,'11111222,11111222,11111222' 
TCOON,ioos:station:TCOON:518:1,2016-12-01T12:48:00Z,29.5150,-94.5133,0.0,5.7,53.0,6.7,'11111222,11111222,11111222' 
TCOON,ioos:station:TCOON:518:1,2016-12-01T12:54:00Z,29.5150,-94.5133,0.0,6.1,51.0,6.8,'11111222,11111222,11111222' 
TCOON,ioos:station:TCOON:518:1,2016-12-01T13:00:00Z,29.5150,-94.5133,0.0,5.5,48.0,6.4,'11111222,11111222,11111222' 
TCOON,ioos:station:TCOON:518:1,2016-12-01T13:06:00Z,29.5150,-94.5133,0.0,5.6,46.0,6.2,'11111222,11111222,11111222' 
TCOON,ioos:station:TCOON:518:1,2016-12-01T13:12:00Z,29.5150,-94.5133,0.0,5.8,50.0,6.5,'11111222,11111222,11111222' 
TCOON,ioos:station:TCOON:518:1,2016-12-01T13:18:00Z,29.5150,-94.5133,0.0,5.5,52.0,6.8,'1111122,1111122,1111122' 
TCOON,ioos:station:TCOON:518:1,2016-12-01T13:24:00Z,29.5150,-94.5133,0.0,5.5,52.0,6.8,'11111222,11111222,11111222' 
TCOON,ioos:station:TCOON:518:1,2016-12-01T13:30:00Z,29.5150,-94.5133,0.0,5.5,66.0,6.6,'11111222,11111222,11111222' 
TCOON,ioos:station:TCOON:518:1,2016-12-01T13:36:00Z,29.5150,-94.5133,0.0,5.1,61.0,6.2,'11111222,11111222,11111222' 
TCOON,ioos:station:TCOON:518:1,2016-12-01T13:42:00Z,29.5150,-94.5133,0.0,5.4,67.0,6.1,'11111222,11111222,11111222' 
TCOON,ioos:station:TCOON:518:1,2016-12-01T13:48:00Z,29.5150,-94.5133,0.0,5.0,66.0,6.1,'11111222,11111222,11111222' 
TCOON,ioos:station:TCOON:518:1,2016-12-01T13:54:00Z,29.5150,-94.5133,0.0,4.5,67.0,5.8,'11111222,11111222,11111222' 
TCOON,ioos:station:TCOON:518:1,2016-12-01T15:30:00Z,29.5150,-94.5133,0.0,5.9,80.0,8.0,'1111122,1111122,1111122' 
TCOON,ioos:station:TCOON:518:1,2016-12-01T16:18:00Z,29.5150,-94.5133,0.0,5.8,82.0,8.9,'1111122,1111122,1111122' 
TCOON,ioos:station:TCOON:518:1,2016-12-01T16:24:00Z,29.5150,-94.5133,0.0,5.8,82.0,8.9,'11111222,11111222,11111222' 
TCOON,ioos:station:TCOON:518:1,2016-12-01T16:30:00Z,29.5150,-94.5133,0.0,7.7,98.0,9.4,'11111222,11111222,11111222' 
TCOON,ioos:station:TCOON:518:1,2016-12-01T16:36:00Z,29.5150,-94.5133,0.0,7.0,91.0,8.6,'11111222,11111222,11111222' 
TCOON,ioos:station:TCOON:518:1,2016-12-01T16:42:00Z,29.5150,-94.5133,0.0,7.5,101.0,10.3,'11111222,11111222,11111222' 
TCOON,ioos:station:TCOON:518:1,2016-12-01T16:48:00Z,29.5150,-94.5133,0.0,8.1,84.0,9.5,'11111222,11111222,11111222' 
TCOON,ioos:station:TCOON:518:1,2016-12-01T16:54:00Z,29.5150,-94.5133,0.0,7.6,96.0,9.3,'11111222,11111222,11111222' 
TCOON,ioos:station:TCOON:518:1,2016-12-01T17:00:00Z,29.5150,-94.5133,0.0,8.4,100.0,9.2,'11111222,11111222,11111222' 
TCOON,ioos:station:TCOON:518:1,2016-12-01T17:06:00Z,29.5150,-94.5133,0.0,7.4,92.0,9.4,'11111222,11111222,11111222' 
TCOON,ioos:station:TCOON:518:1,2016-12-01T17:12:00Z,29.5150,-94.5133,0.0,7.6,83.0,9.5,'11111222,11111222,11111222' 
TCOON,ioos:station:TCOON:518:1,2016-12-01T17:18:00Z,29.5150,-94.5133,0.0,7.2,91.0,9.9,'11111222,11111222,11111222' 
TCOON,ioos:station:TCOON:518:1,2016-12-01T17:24:00Z,29.5150,-94.5133,0.0,7.1,87.0,9.8,'11111222,11111222,11111222' 
TCOON,ioos:station:TCOON:518:1,2016-12-01T17:30:00Z,29.5150,-94.5133,0.0,7.4,99.0,8.8,'11111222,11111222,11111222' 
TCOON,ioos:station:TCOON:518:1,2016-12-01T17:36:00Z,29.5150,-94.5133,0.0,6.7,93.0,8.6,'1111122,1111122,1111122' 
TCOON,ioos:station:TCOON:518:1,2016-12-01T17:42:00Z,29.5150,-94.5133,0.0,6.7,93.0,8.6,'11111222,11111222,11111222' 
TCOON,ioos:station:TCOON:518:1,2016-12-01T17:48:00Z,29.5150,-94.5133,0.0,7.1,91.0,8.9,'11111222,11111222,11111222' 
TCOON,ioos:station:TCOON:518:1,2016-12-01T17:54:00Z,29.5150,-94.5133,0.0,7.6,100.0,9.7,'11111222,11111222,11111222' 
TCOON,ioos:station:TCOON:518:1,2016-12-01T18:00:00Z,29.5150,-94.5133,0.0,7.1,101.0,8.9,'11111222,11111222,11111222' 
TCOON,ioos:station:TCOON:518:1,2016-12-01T18:06:00Z,29.5150,-94.5133,0.0,7.3,98.0,8.8,'11111222,11111222,11111222' 
TCOON,ioos:station:TCOON:518:1,2016-12-01T18:12:00Z,29.5150,-94.5133,0.0,7.8,102.0,9.1,'11111222,11111222,11111222' 
TCOON,ioos:station:TCOON:518:1,2016-12-01T18:18:00Z,29.5150,-94.5133,0.0,7.0,91.0,8.4,'1111122,1111122,1111122' 
TCOON,ioos:station:TCOON:518:1,2016-12-01T18:24:00Z,29.5150,-94.5133,0.0,7.0,91.0,8.4,'11111222,11111222,11111222' 
TCOON,ioos:station:TCOON:518:1,2016-12-01T18:30:00Z,29.5150,-94.5133,0.0,7.6,83.0,9.7,'11111222,11111222,11111222' 
TCOON,ioos:station:TCOON:518:1,2016-12-01T18:36:00Z,29.5150,-94.5133,0.0,6.6,95.0,8.9,'11111222,11111222,11111222' 
TCOON,ioos:station:TCOON:518:1,2016-12-01T18:42:00Z,29.5150,-94.5133,0.0,7.7,95.0,9.4,'11111222,11111222,11111222' 
TCOON,ioos:station:TCOON:518:1,2016-12-01T18:48:00Z,29.5150,-94.5133,0.0,7.0,95.0,9.5,'11111222,11111222,11111222' 
TCOON,ioos:station:TCOON:518:1,2016-12-01T18:54:00Z,29.5150,-94.5133,0.0,7.5,105.0,9.6,'11111222,11111222,11111222' 
TCOON,ioos:station:TCOON:518:1,2016-12-01T19:00:00Z,29.5150,-94.5133,0.0,7.8,108.0,9.8,'11111222,11111222,11111222' 
TCOON,ioos:station:TCOON:518:1,2016-12-01T19:06:00Z,29.5150,-94.5133,0.0,7.2,113.0,8.9,'11111222,11111222,11111222' 
TCOON,ioos:station:TCOON:518:1,2016-12-01T19:12:00Z,29.5150,-94.5133,0.0,6.9,108.0,8.5,'11111222,11111222,11111222' 
TCOON,ioos:station:TCOON:518:1,2016-12-01T19:18:00Z,29.5150,-94.5133,0.0,6.4,110.0,8.0,'1111122,1111122,1111122' 
TCOON,ioos:station:TCOON:518:1,2016-12-01T19:24:00Z,29.5150,-94.5133,0.0,6.4,110.0,8.0,'11111222,11111222,11111222' 
TCOON,ioos:station:TCOON:518:1,2016-12-01T19:30:00Z,29.5150,-94.5133,0.0,6.5,109.0,8.4,'11111222,11111222,11111222' 
TCOON,ioos:station:TCOON:518:1,2016-12-01T19:36:00Z,29.5150,-94.5133,0.0,6.8,108.0,7.6,'11111222,11111222,11111222' 
TCOON,ioos:station:TCOON:518:1,2016-12-01T19:42:00Z,29.5150,-94.5133,0.0,6.5,111.0,8.0,'11111222,11111222,11111222' 
TCOON,ioos:station:TCOON:518:1,2016-12-01T19:48:00Z,29.5150,-94.5133,0.0,6.1,120.0,7.8,'11111222,11111222,11111222' 
TCOON,ioos:station:TCOON:518:1,2016-12-01T19:54:00Z,29.5150,-94.5133,0.0,6.1,112.0,7.1,'11111222,11111222,11111222' 
TCOON,ioos:station:TCOON:518:1,2016-12-01T20:00:00Z,29.5150,-94.5133,0.0,6.5,109.0,8.2,'11111222,11111222,11111222' 
TCOON,ioos:station:TCOON:518:1,2016-12-01T20:06:00Z,29.5150,-94.5133,0.0,6.3,115.0,7.2,'11111222,11111222,11111222' 
TCOON,ioos:station:TCOON:518:1,2016-12-01T20:12:00Z,29.5150,-94.5133,0.0,6.3,114.0,7.7,'11111222,11111222,11111222' 
TCOON,ioos:station:TCOON:518:1,2016-12-01T20:18:00Z,29.5150,-94.5133,0.0,5.6,119.0,7.0,'1111122,1111122,1111122' 
TCOON,ioos:station:TCOON:518:1,2016-12-01T20:24:00Z,29.5150,-94.5133,0.0,5.6,119.0,7.0,'11111222,11111222,11111222' 
TCOON,ioos:station:TCOON:518:1,2016-12-01T20:30:00Z,29.5150,-94.5133,0.0,6.1,116.0,7.0,'11111222,11111222,11111222' 
TCOON,ioos:station:TCOON:518:1,2016-12-01T20:36:00Z,29.5150,-94.5133,0.0,6.0,109.0,7.2,'11111222,11111222,11111222' 
TCOON,ioos:station:TCOON:518:1,2016-12-01T20:42:00Z,29.5150,-94.5133,0.0,6.5,121.0,7.3,'11111222,11111222,11111222' 
TCOON,ioos:station:TCOON:518:1,2016-12-01T20:48:00Z,29.5150,-94.5133,0.0,6.6,111.0,7.9,'11111222,11111222,11111222' 
TCOON,ioos:station:TCOON:518:1,2016-12-01T20:54:00Z,29.5150,-94.5133,0.0,6.2,115.0,7.5,'11111222,11111222,11111222' 
TCOON,ioos:station:TCOON:518:1,2016-12-01T21:00:00Z,29.5150,-94.5133,0.0,6.4,128.0,7.8,'11111222,11111222,11111222' 
TCOON,ioos:station:TCOON:518:1,2016-12-01T21:06:00Z,29.5150,-94.5133,0.0,6.4,121.0,8.4,'11111222,11111222,11111222' 
TCOON,ioos:station:TCOON:518:1,2016-12-01T21:12:00Z,29.5150,-94.5133,0.0,6.6,119.0,7.8,'11111222,11111222,11111222' 
TCOON,ioos:station:TCOON:518:1,2016-12-01T21:18:00Z,29.5150,-94.5133,0.0,6.8,119.0,7.8,'1111122,1111122,1111122' 
TCOON,ioos:station:TCOON:518:1,2016-12-01T21:24:00Z,29.5150,-94.5133,0.0,6.8,119.0,7.8,'11111222,11111222,11111222' 
TCOON,ioos:station:TCOON:518:1,2016-12-01T21:30:00Z,29.5150,-94.5133,0.0,6.4,108.0,7.4,'11111222,11111222,11111222' 
TCOON,ioos:station:TCOON:518:1,2016-12-01T21:36:00Z,29.5150,-94.5133,0.0,6.0,119.0,7.2,'11111222,11111222,11111222' 
TCOON,ioos:station:TCOON:518:1,2016-12-01T21:42:00Z,29.5150,-94.5133,0.0,5.9,121.0,7.3,'11111222,11111222,11111222' 
TCOON,ioos:station:TCOON:518:1,2016-12-01T21:48:00Z,29.5150,-94.5133,0.0,5.5,117.0,7.1,'11111222,11111222,11111222' 
TCOON,ioos:station:TCOON:518:1,2016-12-01T21:54:00Z,29.5150,-94.5133,0.0,5.3,105.0,6.9,'11111222,11111222,11111222' 
TCOON,ioos:station:TCOON:518:1,2016-12-01T22:00:00Z,29.5150,-94.5133,0.0,4.3,111.0,6.2,'11111222,11111222,11111222' 
TCOON,ioos:station:TCOON:518:1,2016-12-01T22:06:00Z,29.5150,-94.5133,0.0,5.2,117.0,6.1,'11111222,11111222,11111222' 
TCOON,ioos:station:TCOON:518:1,2016-12-01T22:12:00Z,29.5150,-94.5133,0.0,4.3,111.0,5.4,'11111222,11111222,11111222' 
TCOON,ioos:station:TCOON:518:1,2016-12-01T22:18:00Z,29.5150,-94.5133,0.0,4.9,113.0,5.8,'1111122,1111122,1111122' 
TCOON,ioos:station:TCOON:518:1,2016-12-01T22:24:00Z,29.5150,-94.5133,0.0,4.9,113.0,5.8,'11111222,11111222,11111222' 
TCOON,ioos:station:TCOON:518:1,2016-12-01T22:30:00Z,29.5150,-94.5133,0.0,5.3,123.0,5.9,'11111222,11111222,11111222' 
TCOON,ioos:station:TCOON:518:1,2016-12-01T22:36:00Z,29.5150,-94.5133,0.0,5.4,122.0,7.0,'11111222,11111222,11111222' 
TCOON,ioos:station:TCOON:518:1,2016-12-01T22:42:00Z,29.5150,-94.5133,0.0,5.1,127.0,6.1,'11111222,11111222,11111222' 
TCOON,ioos:station:TCOON:518:1,2016-12-01T22:48:00Z,29.5150,-94.5133,0.0,4.9,124.0,6.2,'11111222,11111222,11111222' 
TCOON,ioos:station:TCOON:518:1,2016-12-01T22:54:00Z,29.5150,-94.5133,0.0,5.0,113.0,5.9,'11111222,11111222,11111222' 
TCOON,ioos:station:TCOON:518:1,2016-12-01T23:00:00Z,29.5150,-94.5133,0.0,5.0,124.0,6.0,'11111222,11111222,11111222' 
TCOON,ioos:station:TCOON:518:1,2016-12-01T23:06:00Z,29.5150,-94.5133,0.0,4.9,125.0,5.6,'11111222,11111222,11111222' 
TCOON,ioos:station:TCOON:518:1,2016-12-01T23:12:00Z,29.5150,-94.5133,0.0,5.0,119.0,5.7,'11111222,11111222,11111222' 